Theta_e
336 340 347 346 345 345 346 344 342 341 342 343 343 342 340 339 337 341 341 340 341 343 343 345 345 343 342 342 341 340 339 338 337 336 336 335 334 334 332 332 333 325 332
338 342 345 346 345 345 346 344 343 342 341 341 341 340 339 337 336 335 338 338 340 340 341 342 341 340 339 338 338 337 337 336 335 335 334 333 333 332 332 330 331 327 331
340 342 342 345 345 345 345 345 344 342 340 339 340 339 338 337 336 335 335 336 338 338 339 340 340 339 338 337 337 337 336 335 334 333 332 323 324 332 331 330 330 330 330
341 341 342 343 345 343 342 343 343 343 340 338 338 337 337 335 335 336 334 333 334 338 337 337 337 337 337 336 336 337 336 334 332 328 322 323 324 331 330 330 330 329 329
341 342 341 343 345 343 342 341 341 343 341 338 337 335 334 334 333 332 333 333 332 332 336 336 335 336 336 337 335 336 334 334 329 323 319 320 320 327 329 330 327 327 329
340 341 340 344 345 344 343 341 342 343 341 338 337 337 335 333 332 331 331 333 331 334 336 334 334 334 337 337 335 335 333 331 325 318 319 322 320 327 327 327 326 325 328
337 339 339 344 345 345 344 342 341 342 342 340 339 338 337 334 333 331 331 331 332 333 334 333 332 332 333 335 335 333 330 328 319 318 318 318 319 328 326 325 325 324 325
337 339 339 337 340 343 344 343 343 342 341 340 340 339 338 337 335 332 331 330 328 328 330 331 330 330 330 331 331 331 330 327 321 318 317 318 323 330 327 324 324 323 323
337 338 338 338 337 335 339 340 341 341 341 341 341 341 339 338 337 336 336 334 329 328 328 329 330 330 329 330 330 330 327 326 318 319 319 318 325 331 330 327 325 324 324
335 336 336 336 337 336 335 333 335 337 338 339 337 334 333 333 334 334 332 333 334 333 333 333 332 330 330 330 330 329 326 323 316 316 317 318 327 331 333 330 327 326 326
332 332 333 334 335 335 335 333 330 332 333 333 332 330 328 330 330 328 328 330 334 336 336 335 335 333 331 329 327 325 323 317 315 315 316 321 326 331 333 333 330 328 327
327 329 331 332 333 333 337 334 331 333 332 333 330 328 327 328 329 329 324 326 329 329 332 335 336 333 327 321 319 320 315 313 313 314 315 322 327 329 333 334 333 331 330
326 327 331 331 332 331 332 331 330 330 330 330 330 329 326 326 325 326 325 324 323 321 322 324 324 324 323 321 319 318 317 315 313 313 316 321 326 330 331 333 334 333 333
325 327 329 331 330 330 330 330 329 329 329 328 328 329 326 324 324 322 322 322 321 321 320 320 320 321 321 321 320 319 318 317 315 314 315 318 322 327 329 331 332 333 333
323 326 327 328 329 329 328 328 328 328 328 328 328 328 327 325 323 323 324 325 324 324 322 320 319 319 319 319 319 319 318 318 317 316 315 315 319 325 329 331 332 332 332
324 325 326 327 328 328 327 327 327 327 328 327 327 328 328 326 325 323 323 323 325 325 324 323 322 322 321 321 320 320 320 319 318 317 316 316 319 323 327 330 332 333 333
319 322 319 322 327 326 326 327 326 327 328 326 326 327 327 327 326 328 328 326 325 325 324 324 323 323 322 322 321 322 322 321 321 320 320 319 320 319 322 327 330 332 333
309 308 307 310 309 310 310 311 315 323 325 326 326 327 327 327 328 330 329 328 328 327 324 324 324 322 322 322 322 322 321 321 320 320 320 320 320 320 320 323 325 328 330
305 305 305 306 307 307 308 308 306 308 313 321 324 325 326 327 328 328 330 329 329 328 327 326 325 324 322 322 321 322 322 321 321 321 319 318 318 318 320 318 320 320 324
303 304 305 305 306 306 307 308 306 306 308 312 315 318 322 325 326 327 327 329 329 328 327 327 325 324 323 323 323 323 323 323 322 321 319 319 318 318 317 316 315 315 317
302 303 303 303 303 304 305 306 305 305 310 313 313 314 320 322 324 325 325 325 325 323 321 321 321 322 322 323 320 318 317 318 317 317 317 316 316 317 316 315 315 314 314
301 301 301 302 301 301 303 306 307 307 312 311 305 303 305 311 315 318 323 322 321 321 322 322 322 321 321 322 317 316 312 311 312 315 316 317 316 316 316 315 315 314 313
298 299 300 299 299 300 301 306 308 310 308 307 304 299 299 301 303 305 307 309 310 313 310 311 314 318 318 319 320 317 311 309 308 312 313 314 314 313 313 314 313 312 309
297 297 297 297 297 298 300 306 307 308 305 302 299 296 296 297 298 299 301 302 302 303 303 305 311 313 314 315 318 318 319 316 310 307 311 311 312 311 311 311 303 301 299
296 294 294 295 295 295 298 303 306 303 300 296 295 294 294 294 295 296 297 297 298 299 300 301 301 303 305 309 309 310 315 316 316 312 308 307 307 309 308 301 298 296 293
293 292 292 293 293 293 295 297 299 298 296 294 293 292 291 291 291 292 293 294 295 296 296 296 297 296 297 298 301 302 303 301 301 303 304 302 301 304 301 296 292 292 291
Wind_Speed
4 5 10 11 9 8 10 11 11 11 10 10 11 11 11 10 10 12 14 13 12 13 14 15 17 16 17 17 17 16 15 15 15 15 14 12 12 11 11 11 11 7 12
7 6 10 10 9 9 9 11 11 11 10 9 11 10 10 9 11 11 12 11 12 12 13 13 14 15 15 14 14 11 12 13 13 12 12 11 10 10 11 9 10 8 11
7 6 8 10 9 9 8 8 10 12 11 9 8 8 8 8 9 9 10 9 10 11 11 11 12 11 12 12 12 11 11 11 10 10 10 5 5 10 9 9 9 9 11
9 6 6 10 10 10 8 7 6 7 11 9 8 7 7 6 6 8 8 7 6 11 10 10 10 10 10 10 11 10 8 10 9 9 5 5 5 8 9 8 10 8 9
7 7 7 10 10 11 9 7 6 7 10 8 8 7 7 6 6 6 7 7 5 4 9 9 9 10 10 7 10 11 8 7 8 6 5 4 3 6 7 7 7 7 9
6 6 8 10 10 10 10 8 7 8 9 8 7 7 6 6 6 5 5 5 3 5 8 8 9 9 12 7 9 10 10 6 6 4 4 4 3 5 6 5 4 4 5
6 6 6 10 10 9 9 9 7 6 7 7 8 7 5 6 5 3 4 4 4 5 6 7 8 8 9 11 11 10 8 8 3 2 2 3 4 4 4 3 2 3 4
9 6 6 8 9 9 8 7 6 5 4 1 3 6 5 5 5 3 3 2 1 2 3 3 4 5 5 6 7 7 7 6 4 2 1 2 6 6 3 2 2 2 3
6 7 6 5 6 7 7 6 6 5 3 3 2 3 4 4 4 3 2 2 3 2 1 1 2 4 4 4 6 7 7 6 3 2 3 2 6 7 4 3 4 4 4
6 5 6 6 5 5 5 7 7 6 5 4 3 2 2 4 5 5 4 4 5 5 4 3 3 3 4 4 5 6 6 5 3 3 3 3 8 9 9 4 4 5 6
3 5 5 6 6 6 5 5 6 6 7 6 4 4 3 2 4 4 4 5 6 6 6 6 6 5 5 5 6 6 6 2 3 2 2 6 8 9 11 8 5 5 5
6 6 5 5 6 5 3 5 5 4 4 4 4 4 3 3 4 4 4 6 6 6 8 8 7 7 5 2 3 4 2 4 3 3 3 8 9 9 10 12 8 7 8
5 3 6 6 6 6 5 3 2 2 3 3 5 5 5 3 3 2 2 2 3 4 3 4 4 3 3 3 3 3 4 4 3 3 5 9 10 11 10 11 13 10 10
6 7 6 6 5 6 3 3 3 3 3 3 4 5 4 3 3 4 3 4 3 3 4 4 3 4 4 5 5 5 5 4 3 3 4 9 10 10 11 12 13 14 13
6 7 7 6 6 5 5 3 4 4 4 5 4 4 4 4 4 3 4 4 4 3 3 4 4 3 4 5 4 5 6 6 6 3 3 10 11 13 14 15 15 15 16
7 7 6 7 7 5 5 6 4 4 5 4 4 5 6 4 4 4 3 4 3 5 4 4 4 4 4 4 5 5 7 6 6 6 4 5 11 15 15 17 17 16 16
7 6 8 7 6 7 6 5 4 4 4 4 4 5 6 5 5 5 4 4 4 4 5 3 4 3 3 3 6 5 6 7 6 6 5 5 6 9 15 17 16 16 17
5 8 6 5 5 4 4 3 3 4 4 4 4 4 6 6 7 5 4 4 4 3 4 3 4 4 5 5 5 6 5 4 6 6 5 5 5 5 6 12 14 14 16
7 7 6 5 5 2 1 2 3 4 4 3 4 4 6 6 6 5 4 4 3 3 3 3 3 4 3 4 4 4 5 5 6 4 7 6 6 5 4 6 9 9 13
4 4 4 3 3 1 1 2 2 2 3 2 2 3 4 4 5 4 2 2 2 2 2 2 4 3 3 3 3 4 4 5 4 5 5 4 3 5 4 5 4 4 8
5 7 7 6 3 2 1 0 1 2 1 2 3 5 3 1 2 4 3 3 1 2 2 2 2 2 3 2 2 3 3 5 5 4 3 3 4 4 4 3 3 3 4
7 6 5 5 4 2 2 2 2 2 3 3 3 5 7 6 6 5 3 3 2 2 5 4 3 2 2 1 1 1 4 5 3 3 2 3 3 1 3 4 5 5 5
8 8 7 6 4 2 2 2 2 2 2 2 3 3 5 6 6 6 6 4 4 3 3 3 4 4 2 0 1 2 2 3 3 2 2 1 3 3 4 5 9 10 11
8 6 5 5 4 2 3 4 5 3 3 1 3 3 4 6 6 6 5 6 4 4 4 2 3 2 3 2 1 3 4 2 2 4 1 2 3 5 6 7 8 10 10
8 7 5 4 3 1 3 4 5 4 3 3 3 5 5 5 5 5 6 5 5 4 3 4 4 4 2 2 1 2 2 2 3 3 3 2 3 4 7 7 7 7 9
7 7 6 6 3 2 3 3 6 8 7 5 4 4 3 3 3 5 5 5 5 4 4 3 4 4 3 2 1 2 0 0 1 0 1 2 2 3 5 6 7 6 6
Wind_Direction
186 175 134 127 128 133 129 120 113 100 93 91 97 90 95 92 86 80 73 70 74 72 76 79 80 80 79 80 78 72 72 71 69 66 64 64 64 70 64 57 47 47 62
134 157 135 135 132 127 134 136 127 115 104 99 94 92 88 85 75 68 66 60 71 72 71 75 79 77 76 75 73 72 87 81 75 70 61 52 63 58 66 62 61 60 58
141 148 134 137 134 124 118 116 146 134 122 114 104 99 90 87 82 77 78 57 67 76 76 71 73 73 72 73 75 73 99 88 77 73 67 42 22 66 53 62 59 49 61
141 134 132 138 141 140 133 128 127 115 117 122 120 112 104 99 92 80 94 76 58 78 78 70 64 59 55 62 69 68 94 85 74 62 50 48 16 47 49 53 52 51 35
135 139 144 146 145 141 133 134 137 127 127 126 136 127 112 115 102 93 79 84 63 87 92 68 54 46 33 49 64 63 73 92 73 54 33 47 31 46 55 55 57 32 16
142 141 150 152 152 150 142 138 138 143 143 141 146 149 139 131 124 125 108 49 133 42 82 59 46 38 27 88 68 63 66 79 68 48 27 357 12 52 60 69 64 34 25
148 147 157 159 158 158 153 147 143 143 163 160 161 158 170 157 152 146 126 85 63 58 58 51 35 36 29 29 46 58 57 64 56 55 11 351 327 11 45 62 59 21 10
157 154 164 171 165 162 159 154 152 156 170 158 181 161 167 170 178 178 182 159 128 70 44 63 23 30 30 22 24 35 51 47 42 14 292 315 304 318 356 359 341 328 319
147 155 164 172 176 171 169 173 177 181 183 170 161 179 184 188 198 204 230 244 248 262 255 141 333 352 353 353 354 2 14 30 28 353 328 289 292 295 310 328 317 310 311
158 170 173 171 174 178 183 189 192 196 204 214 214 212 192 224 220 225 229 252 259 269 276 280 255 282 306 322 329 330 338 17 21 338 319 302 298 288 292 281 302 310 303
174 187 184 172 183 187 189 198 202 207 206 205 214 227 229 220 224 231 232 237 257 270 271 264 249 254 280 312 321 325 332 317 307 280 276 286 296 295 281 283 257 276 292
193 199 194 186 191 190 197 193 203 200 208 197 199 209 209 213 211 212 232 253 267 276 279 280 274 263 275 281 302 323 312 302 297 281 263 276 285 291 280 282 270 253 253
206 195 195 197 193 192 197 196 196 202 204 221 202 193 201 206 216 222 231 247 250 263 263 270 286 281 265 259 276 280 285 293 288 285 284 276 283 284 286 278 289 275 261
194 214 206 201 196 207 191 198 200 200 207 221 220 202 188 192 203 214 222 235 238 239 255 243 244 259 267 261 255 269 268 269 267 266 268 273 275 283 287 281 279 284 280
211 220 218 192 207 211 208 205 209 215 207 214 219 220 193 203 210 212 205 195 215 215 232 239 233 240 253 258 258 250 261 257 252 244 251 257 263 272 277 278 277 277 280
219 227 216 212 210 192 214 212 219 216 225 212 214 219 210 208 215 212 231 241 230 195 209 221 214 220 234 230 249 237 249 247 247 249 245 255 256 261 267 270 273 277 280
226 228 215 219 202 201 213 222 225 231 219 220 218 218 217 210 219 220 223 212 235 225 210 207 231 229 238 236 248 244 243 247 246 247 246 245 258 255 256 272 278 278 279
205 200 179 163 158 172 202 241 255 251 239 237 223 208 217 215 219 220 202 219 217 211 213 197 214 230 229 224 244 244 237 237 244 243 241 245 247 258 259 266 273 280 283
209 181 173 155 150 145 309 285 269 267 258 252 235 226 227 221 229 224 224 217 208 220 228 216 237 219 234 235 242 252 246 243 247 241 237 242 244 251 265 272 275 274 283
193 175 164 148 132 110 326 286 278 284 283 287 288 269 257 233 226 211 241 234 178 223 296 248 240 216 235 247 252 250 246 240 238 228 246 253 262 258 276 281 302 302 277
180 178 182 170 165 136 157 112 333 293 348 44 30 16 23 179 179 153 137 119 107 175 223 268 267 279 254 240 262 302 286 268 267 269 253 260 275 289 299 305 303 315 334
185 188 177 181 179 165 140 187 153 157 83 78 54 37 32 39 44 61 84 100 60 45 24 10 356 304 288 357 299 19 322 329 336 284 267 255 264 320 15 15 22 22 28
195 187 188 186 182 165 180 159 106 88 72 81 43 41 24 41 43 52 45 63 56 71 72 40 15 346 314 309 297 275 272 253 323 321 345 34 51 42 41 50 58 54 57
198 181 178 170 166 173 210 189 176 173 152 107 89 77 48 40 49 51 58 57 57 54 58 26 38 4 330 287 324 223 234 241 296 305 12 5 52 61 66 63 57 53 44
166 171 162 152 136 166 189 181 168 140 119 114 105 102 76 54 48 48 51 55 55 56 51 48 32 24 1 323 340 348 302 255 230 225 261 303 54 56 74 68 62 53 42
154 158 161 156 142 143 139 124 150 146 143 133 137 116 92 66 45 42 52 57 58 62 58 56 56 52 33 44 1 40 69 199 304 243 271 317 357 65 75 70 63 54 44